Location: Unspecified
(54.3232°N, 10.1392°E)
Time: 21:58:52
(UTC+01:00)

BlueWalker 3 - Visible Passes

Search period start: 30 November 2023 00:00
Search period end: 10 December 2023 00:00
Orbit: 489 x 504 km, 53.2° (Epoch: 29 November)

Date Brightness Start Highest point End Pass type
(mag) Time Alt. Az. Time Alt. Az. Time Alt. Az.
30 Nov 5.2 04:11:09 12° E 04:11:09 12° E 04:11:26 10° E visible
30 Nov 2.4 05:45:43 45° SSW 05:45:48 46° SSW 05:49:28 10° SE visible
30 Nov 4.1 07:21:16 10° WSW 07:23:29 15° SW 07:25:41 10° S visible
01 Dec 3.0 05:24:08 37° SSE 05:24:08 37° SSE 05:26:53 10° SE visible
01 Dec 4.0 06:58:42 10° WSW 07:00:54 15° SW 07:03:08 10° S visible
02 Dec 3.9 05:02:34 24° SE 05:02:34 24° SE 05:04:17 10° SE visible
02 Dec 3.9 06:37:08 14° WSW 06:38:18 15° SW 06:40:33 10° S visible
03 Dec 4.7 04:41:03 14° SE 04:41:03 14° SE 04:41:39 10° SE visible
03 Dec 3.9 06:15:37 15° SW 06:15:40 15° SW 06:17:57 10° S visible
04 Dec 4.2 05:54:09 14° SSW 05:54:09 14° SSW 05:55:20 10° S visible
